SAS389 ENVA-ENGM

Flight info

Callsign SAS389
Flight time 0h 38m
Altitude 27000
Route UTUNA DCT TUTBI DCT BELGU
Aircraft A320/M-SDE3FGHIRWY/LB1

Departure

Time 2026-05-07 20:14
Airport Trondheim Airport, Værnes (ENVA)

Arrival

Time 2026-05-07 20:52
Airport Oslo-Gardermoen International Airport (ENGM)
Time Latitude Longitude Altitude Speed Heading
2026-05-07 19:44 63.45496 10.91825 39 ft 0 kts 180°
2026-05-07 20:05 63.45515 10.91825 37 ft 4 kts 180°
2026-05-07 20:05 63.45537 10.91825 39 ft 4 kts 167°
2026-05-07 20:05 63.45555 10.91799 37 ft 4 kts 102°
2026-05-07 20:05 63.45556 10.91756 37 ft 0 kts 90°
2026-05-07 20:10 63.45556 10.92067 39 ft 17 kts 90°
2026-05-07 20:10 63.45555 10.92348 41 ft 13 kts 90°
2026-05-07 20:10 63.45595 10.92511 42 ft 14 kts 84°
2026-05-07 20:10 63.45594 10.92726 45 ft 14 kts 89°
2026-05-07 20:11 63.45594 10.92955 48 ft 15 kts 90°
2026-05-07 20:11 63.45594 10.93187 51 ft 15 kts 90°
2026-05-07 20:11 63.45592 10.93433 55 ft 16 kts 90°
2026-05-07 20:11 63.45591 10.93684 56 ft 16 kts 90°
2026-05-07 20:12 63.45631 10.93921 60 ft 18 kts 53°
2026-05-07 20:12 63.45649 10.93960 56 ft 2 kts 42°
2026-05-07 20:12 63.45664 10.93990 57 ft 4 kts 41°
2026-05-07 20:12 63.45694 10.94047 60 ft 7 kts 39°
2026-05-07 20:13 63.45742 10.94082 54 ft 8 kts 336°
2026-05-07 20:13 63.45757 10.93929 58 ft 15 kts 270°
2026-05-07 20:13 63.45755 10.93263 51 ft 77 kts 270°
2026-05-07 20:13 63.45758 10.91590 38 ft 135 kts 270°
2026-05-07 20:14 63.45757 10.89244 319 ft 151 kts 269°
2026-05-07 20:14 63.45783 10.86919 961 ft 150 kts 271°
2026-05-07 20:14 63.45822 10.84563 1462 ft 158 kts 271°
2026-05-07 20:14 63.45865 10.81942 1732 ft 180 kts 271°
2026-05-07 20:15 63.45911 10.78955 2005 ft 204 kts 271°
2026-05-07 20:15 63.45958 10.75591 2366 ft 229 kts 271°
2026-05-07 20:15 63.45891 10.71871 2872 ft 249 kts 254°
2026-05-07 20:15 63.44938 10.68641 3709 ft 257 kts 217°
2026-05-07 20:16 63.43268 10.67273 4653 ft 263 kts 182°
2026-05-07 20:16 63.41465 10.68092 5601 ft 268 kts 160°
2026-05-07 20:16 63.39759 10.69821 6608 ft 270 kts 156°
2026-05-07 20:16 63.38064 10.71642 7521 ft 272 kts 157°
2026-05-07 20:17 63.36355 10.73480 8413 ft 274 kts 157°
2026-05-07 20:17 63.34619 10.75302 9281 ft 276 kts 161°
2026-05-07 20:17 63.32807 10.76716 10141 ft 277 kts 167°
2026-05-07 20:17 63.30908 10.77875 10614 ft 293 kts 169°
2026-05-07 20:18 63.28852 10.78998 10812 ft 316 kts 169°
2026-05-07 20:18 63.26669 10.80179 11263 ft 328 kts 169°
2026-05-07 20:18 63.24437 10.81430 11910 ft 334 kts 169°
2026-05-07 20:18 63.22175 10.82742 12570 ft 339 kts 168°
2026-05-07 20:19 63.19877 10.84108 13255 ft 344 kts 168°
2026-05-07 20:19 63.17546 10.85513 13917 ft 350 kts 168°
2026-05-07 20:19 63.15172 10.86854 14520 ft 353 kts 173°
2026-05-07 20:19 63.12734 10.87357 15123 ft 352 kts 185°
2026-05-07 20:20 63.10309 10.86800 15716 ft 350 kts 196°
2026-05-07 20:20 63.07984 10.85419 16317 ft 351 kts 200°
2026-05-07 20:20 63.05620 10.83943 16932 ft 355 kts 200°
2026-05-07 20:20 63.03233 10.82469 17550 ft 358 kts 200°
2026-05-07 20:21 63.00824 10.80994 18142 ft 361 kts 200°
2026-05-07 20:21 62.98390 10.79514 18752 ft 364 kts 200°
2026-05-07 20:21 62.95937 10.78026 19317 ft 367 kts 201°
2026-05-07 20:21 62.93467 10.76534 19894 ft 370 kts 201°
2026-05-07 20:22 62.90969 10.75026 20500 ft 374 kts 201°
2026-05-07 20:22 62.88452 10.73505 21066 ft 377 kts 202°
2026-05-07 20:22 62.85912 10.71970 21631 ft 380 kts 202°
2026-05-07 20:22 62.83319 10.70615 22190 ft 389 kts 196°
2026-05-07 20:23 62.80579 10.70150 22723 ft 399 kts 189°
2026-05-07 20:23 62.77798 10.69962 23232 ft 402 kts 189°
2026-05-07 20:23 62.74987 10.69775 23727 ft 406 kts 189°
2026-05-07 20:23 62.72150 10.69590 24102 ft 409 kts 189°
2026-05-07 20:24 62.69297 10.69396 24508 ft 412 kts 189°
2026-05-07 20:24 62.66419 10.69195 24911 ft 415 kts 189°
2026-05-07 20:24 62.63527 10.68998 25309 ft 417 kts 189°
2026-05-07 20:24 62.60615 10.68804 25705 ft 420 kts 189°
2026-05-07 20:25 62.57687 10.68609 26091 ft 422 kts 189°
2026-05-07 20:25 62.54738 10.68406 26480 ft 425 kts 190°
2026-05-07 20:25 62.51779 10.68198 26849 ft 427 kts 190°
2026-05-07 20:25 62.48802 10.67991 27131 ft 429 kts 190°
2026-05-07 20:26 62.45827 10.67796 27182 ft 425 kts 190°
2026-05-07 20:26 62.42876 10.67608 27181 ft 423 kts 190°
2026-05-07 20:26 62.39935 10.67416 27163 ft 423 kts 190°
2026-05-07 20:26 62.36991 10.67213 27183 ft 424 kts 190°
2026-05-07 20:27 62.34041 10.67007 27175 ft 424 kts 190°
2026-05-07 20:27 62.31094 10.66807 27177 ft 424 kts 190°
2026-05-07 20:27 62.28143 10.66615 27177 ft 424 kts 190°
2026-05-07 20:27 62.25196 10.66425 27176 ft 424 kts 190°
2026-05-07 20:28 62.22244 10.66231 27172 ft 424 kts 190°
2026-05-07 20:28 62.19298 10.66034 27174 ft 424 kts 190°
2026-05-07 20:28 62.16346 10.65837 27177 ft 424 kts 190°
2026-05-07 20:28 62.13397 10.65641 27172 ft 424 kts 190°
2026-05-07 20:29 62.10449 10.65447 27126 ft 424 kts 191°
2026-05-07 20:29 62.07493 10.65255 27141 ft 425 kts 191°
2026-05-07 20:29 62.04540 10.65059 27149 ft 425 kts 191°
2026-05-07 20:29 62.01623 10.64864 27155 ft 425 kts 191°
2026-05-07 20:30 61.98631 10.64670 27155 ft 425 kts 191°
2026-05-07 20:30 61.95678 10.64480 27152 ft 425 kts 191°
2026-05-07 20:30 61.92760 10.64292 27158 ft 425 kts 191°
2026-05-07 20:30 61.89810 10.64105 27160 ft 425 kts 191°
2026-05-07 20:31 61.86852 10.63918 27158 ft 425 kts 191°
2026-05-07 20:31 61.83896 10.63725 27159 ft 425 kts 191°
2026-05-07 20:31 61.80906 10.63528 27108 ft 425 kts 190°
2026-05-07 20:31 61.77953 10.63334 27145 ft 425 kts 190°
2026-05-07 20:32 61.75037 10.63143 27154 ft 425 kts 190°
2026-05-07 20:32 61.72087 10.62949 27086 ft 421 kts 190°
2026-05-07 20:32 61.69187 10.62773 26830 ft 414 kts 190°
2026-05-07 20:32 61.66325 10.62601 26570 ft 411 kts 190°
2026-05-07 20:33 61.63473 10.62421 26314 ft 409 kts 190°
2026-05-07 20:33 61.60635 10.62237 26056 ft 407 kts 190°
2026-05-07 20:33 61.57809 10.62049 25804 ft 405 kts 190°
2026-05-07 20:33 61.55009 10.61867 25471 ft 400 kts 190°
2026-05-07 20:34 61.52232 10.61687 25000 ft 398 kts 189°
2026-05-07 20:34 61.49466 10.61509 24519 ft 397 kts 189°
2026-05-07 20:34 61.46713 10.61339 24088 ft 395 kts 189°
2026-05-07 20:34 61.43966 10.61167 23619 ft 395 kts 189°
2026-05-07 20:35 61.41226 10.60990 23142 ft 392 kts 189°
2026-05-07 20:35 61.38511 10.60814 22700 ft 389 kts 189°
2026-05-07 20:35 61.35819 10.60640 22249 ft 386 kts 188°
2026-05-07 20:35 61.33141 10.60475 21793 ft 383 kts 188°
2026-05-07 20:36 61.30484 10.60315 21323 ft 381 kts 188°
2026-05-07 20:36 61.28701 10.60209 21012 ft 379 kts 188°
2026-05-07 20:36 61.26093 10.60058 20791 ft 369 kts 188°
2026-05-07 20:36 61.23568 10.59921 20661 ft 358 kts 187°
2026-05-07 20:37 61.21102 10.60345 20523 ft 354 kts 175°
2026-05-07 20:37 61.18746 10.61829 20263 ft 355 kts 164°
2026-05-07 20:37 61.16456 10.63733 19760 ft 352 kts 164°
2026-05-07 20:37 61.14205 10.65576 19208 ft 344 kts 165°
2026-05-07 20:38 61.12001 10.67362 18744 ft 335 kts 165°
2026-05-07 20:38 61.09859 10.69085 18292 ft 326 kts 165°
2026-05-07 20:38 61.07800 10.70738 17843 ft 317 kts 165°
2026-05-07 20:38 61.05778 10.72364 17427 ft 307 kts 165°
2026-05-07 20:39 61.03780 10.73966 17008 ft 302 kts 165°
2026-05-07 20:39 61.01847 10.75503 16605 ft 301 kts 165°
2026-05-07 20:39 60.99891 10.77055 16201 ft 302 kts 165°
2026-05-07 20:39 60.97921 10.78615 15782 ft 304 kts 164°
2026-05-07 20:40 60.95943 10.80184 15371 ft 306 kts 164°
2026-05-07 20:40 60.93950 10.81767 14949 ft 308 kts 163°
2026-05-07 20:40 60.91943 10.83363 14524 ft 310 kts 163°
2026-05-07 20:40 60.89928 10.84963 14099 ft 311 kts 163°
2026-05-07 20:41 60.87906 10.86566 13626 ft 312 kts 163°
2026-05-07 20:41 60.85894 10.88164 13266 ft 309 kts 163°
2026-05-07 20:41 60.83893 10.89752 12948 ft 306 kts 162°
2026-05-07 20:41 60.81898 10.91333 12500 ft 306 kts 162°
2026-05-07 20:42 60.79930 10.92892 12207 ft 302 kts 162°
2026-05-07 20:42 60.77970 10.94433 11831 ft 301 kts 162°
2026-05-07 20:42 60.76021 10.95964 11479 ft 299 kts 162°
2026-05-07 20:42 60.74089 10.97481 11137 ft 297 kts 162°
2026-05-07 20:43 60.72164 10.98993 10699 ft 294 kts 162°
2026-05-07 20:43 60.70258 11.00490 10064 ft 293 kts 161°
2026-05-07 20:43 60.68372 11.01964 9481 ft 287 kts 161°
2026-05-07 20:43 60.66506 11.03419 9072 ft 288 kts 161°
2026-05-07 20:44 60.64640 11.04875 8735 ft 285 kts 161°
2026-05-07 20:44 60.62788 11.06318 8378 ft 283 kts 161°
2026-05-07 20:44 60.60949 11.07752 7986 ft 283 kts 161°
2026-05-07 20:44 60.59119 11.09174 7626 ft 282 kts 161°
2026-05-07 20:45 60.57295 11.10592 7363 ft 277 kts 160°
2026-05-07 20:45 60.55510 11.11978 7147 ft 271 kts 160°
2026-05-07 20:45 60.53777 11.13326 7014 ft 262 kts 160°
2026-05-07 20:45 60.52099 11.14630 6884 ft 254 kts 160°
2026-05-07 20:46 60.50480 11.15891 6761 ft 245 kts 160°
2026-05-07 20:46 60.48913 11.17108 6609 ft 238 kts 160°
2026-05-07 20:46 60.47324 11.18331 5945 ft 252 kts 160°
2026-05-07 20:46 60.45639 11.19620 5269 ft 266 kts 160°
2026-05-07 20:47 60.43933 11.20928 4972 ft 263 kts 160°
2026-05-07 20:47 60.42226 11.22235 4813 ft 255 kts 160°
2026-05-07 20:47 60.40614 11.23279 4700 ft 237 kts 172°
2026-05-07 20:47 60.39044 11.23235 4575 ft 219 kts 192°
2026-05-07 20:48 60.37620 11.22437 4323 ft 207 kts 195°
2026-05-07 20:48 60.36264 11.21640 4052 ft 198 kts 195°
2026-05-07 20:48 60.34967 11.20881 3806 ft 190 kts 195°
2026-05-07 20:48 60.33712 11.20148 3549 ft 186 kts 195°
2026-05-07 20:49 60.32491 11.19436 3281 ft 178 kts 195°
2026-05-07 20:49 60.31328 11.18757 3042 ft 171 kts 194°
2026-05-07 20:49 60.30222 11.18113 2817 ft 164 kts 194°
2026-05-07 20:49 60.29157 11.17493 2616 ft 153 kts 194°
2026-05-07 20:50 60.28156 11.16911 2395 ft 148 kts 194°
2026-05-07 20:50 60.27182 11.16345 2193 ft 144 kts 195°
2026-05-07 20:50 60.26223 11.15788 1996 ft 143 kts 195°
2026-05-07 20:50 60.25268 11.15234 1800 ft 142 kts 195°
2026-05-07 20:51 60.24316 11.14681 1599 ft 142 kts 195°
2026-05-07 20:51 60.23360 11.14128 1394 ft 143 kts 195°
2026-05-07 20:51 60.22401 11.13574 1206 ft 144 kts 195°
2026-05-07 20:51 60.21437 11.13018 1012 ft 145 kts 195°
2026-05-07 20:52 60.20469 11.12457 814 ft 145 kts 195°
2026-05-07 20:52 60.19518 11.11907 681 ft 131 kts 195°
2026-05-07 20:52 60.18915 11.11561 684 ft 46 kts 195°
2026-05-07 20:52 60.18682 11.11422 684 ft 30 kts 198°
2026-05-07 20:53 60.18520 11.11276 683 ft 22 kts 211°
2026-05-07 20:53 60.18442 11.11088 679 ft 17 kts 258°
2026-05-07 20:53 60.18466 11.10840 681 ft 20 kts 291°
2026-05-07 20:53 60.18569 11.10785 682 ft 18 kts 16°
2026-05-07 20:54 60.18694 11.10860 682 ft 20 kts 16°
2026-05-07 20:54 60.18835 11.10943 683 ft 22 kts 15°
2026-05-07 20:54 60.18994 11.11032 680 ft 25 kts 17°
2026-05-07 20:54 60.19115 11.11105 684 ft 11 kts 15°
2026-05-07 20:55 60.19176 11.11041 685 ft 12 kts 293°
2026-05-07 20:55 60.19201 11.10873 685 ft 11 kts 287°
2026-05-07 20:55 60.19226 11.10702 684 ft 14 kts 286°
2026-05-07 20:55 60.19251 11.10524 681 ft 6 kts 286°
2026-05-07 20:56 60.19267 11.10464 682 ft 4 kts 331°
2026-05-07 20:56 60.19296 11.10485 682 ft 2 kts 18°
2026-05-07 20:56 60.19311 11.10494 685 ft 2 kts 16°
2026-05-07 20:56 60.19314 11.10495 685 ft 0 kts 16°